Theta_e
277 276 276 276 276 276 276 276 276 277 276 276 277 276 277 278 280 281 282 284 283 285 287 289 293 303 314 312 310 310 309 310 306 293 294 297 299 299 299 300 298 297 298
276 276 276 276 275 275 275 275 275 275 276 275 276 275 276 276 277 280 281 282 282 283 284 286 290 296 310 311 309 307 307 308 307 293 290 292 294 298 297 297 295 296 296
275 275 275 275 274 274 274 275 275 274 274 274 274 273 274 274 275 279 281 281 282 282 284 284 286 290 294 307 306 305 305 305 306 295 289 290 290 295 292 293 292 292 293
275 274 274 274 274 273 274 274 274 274 273 272 272 272 272 273 274 277 280 281 280 282 283 284 284 286 285 289 302 303 303 302 302 296 289 290 290 289 292 291 288 287 287
274 274 273 274 274 273 274 273 273 273 273 272 271 270 271 271 274 276 278 279 279 279 280 282 283 284 285 286 290 299 300 299 298 293 288 286 286 288 290 289 289 286 285
274 274 274 274 273 273 273 272 272 272 272 272 270 269 269 271 275 279 279 277 277 278 278 279 282 282 283 285 287 289 295 298 296 294 291 290 289 290 289 289 287 286 285
273 274 274 273 272 272 272 271 271 270 270 270 268 268 266 268 275 278 279 276 275 276 277 277 279 280 280 282 285 287 289 293 296 297 292 292 288 289 289 288 287 286 285
274 273 273 272 271 271 270 269 269 269 268 266 265 265 265 267 274 277 278 274 274 274 276 276 277 277 279 282 282 284 285 287 288 291 293 291 292 289 291 289 289 283 282
273 273 271 270 269 269 268 267 267 267 265 264 266 264 264 265 273 275 276 273 272 272 275 276 276 276 280 283 281 283 284 285 289 291 292 293 292 293 290 288 286 286 282
272 271 269 268 268 267 266 266 267 264 265 265 264 264 264 264 270 274 275 273 270 271 273 274 276 276 281 282 281 282 282 284 284 286 288 291 291 290 291 291 288 288 283
269 268 268 267 267 266 266 266 265 263 263 260 262 263 263 263 264 273 275 271 270 271 271 272 273 278 280 281 283 281 282 285 285 284 285 285 287 286 287 286 289 291 287
266 265 265 264 265 266 265 264 263 262 262 260 260 261 263 262 267 270 273 274 275 271 270 271 273 278 278 279 280 282 282 283 285 284 284 284 285 285 285 285 285 283 282
262 260 259 261 264 265 263 261 261 261 259 260 261 261 262 265 264 270 271 273 274 272 271 274 276 275 276 276 278 279 277 276 278 284 284 284 284 284 280 278 278 278 278
258 258 258 258 260 260 263 263 262 260 258 261 261 262 264 265 265 266 269 271 273 272 273 269 271 272 274 274 273 274 274 273 273 273 283 284 281 280 280 279 278 279 277
257 256 257 259 259 260 262 262 263 263 264 265 266 266 266 265 267 272 272 271 271 273 268 264 265 266 267 268 269 270 270 271 270 271 273 281 281 280 279 279 279 279 277
260 260 260 260 259 260 260 260 265 267 269 270 270 270 269 271 272 273 273 273 273 272 260 259 262 263 264 265 265 266 267 267 268 270 271 273 280 280 278 279 279 279 277
258 260 259 259 259 258 258 258 257 261 266 266 267 269 269 270 271 271 272 272 270 266 252 256 259 261 262 263 263 263 264 266 267 268 270 272 275 279 278 278 279 280 277
255 256 256 256 256 256 256 256 256 255 255 257 262 265 267 268 269 270 271 267 259 259 253 254 257 259 260 261 261 261 262 263 265 266 267 269 271 275 278 278 279 280 278
254 254 254 254 254 254 254 253 253 252 254 255 256 260 261 265 266 268 268 254 254 256 256 256 255 257 259 260 260 260 261 262 263 264 266 268 268 269 275 278 279 280 279
253 254 253 252 250 250 251 251 251 250 251 253 254 256 256 256 254 253 254 250 249 252 253 253 254 253 255 258 258 259 259 260 261 262 264 266 266 267 269 272 279 279 279
255 254 254 250 249 250 249 249 251 251 253 254 255 257 264 262 259 255 256 256 255 254 254 252 253 253 253 256 257 258 258 258 260 261 262 263 264 264 266 268 274 280 280
253 253 254 251 251 251 251 252 251 251 253 254 255 257 263 259 257 256 255 255 255 255 254 252 252 252 253 254 256 256 256 256 258 259 260 261 262 263 264 266 268 275 279
252 252 251 252 253 252 252 251 251 252 253 253 255 256 256 256 255 255 255 255 255 254 255 248 250 251 251 252 251 254 255 256 257 258 258 259 260 261 262 263 265 268 275
252 253 253 252 250 250 250 251 251 252 253 254 255 256 256 256 255 256 256 256 255 255 254 252 251 251 250 250 250 252 254 256 257 258 259 258 258 259 260 261 263 265 268
254 252 252 252 248 249 249 250 251 251 251 254 255 256 256 256 256 256 256 255 255 255 255 253 252 251 251 250 249 249 251 256 256 257 257 256 257 257 259 260 262 264 267
253 250 250 249 248 248 248 250 251 251 252 254 255 256 256 256 256 256 255 255 253 254 254 255 252 251 251 250 250 251 252 257 257 257 256 255 256 257 258 259 261 263 265
Wind_Speed
4 4 5 5 5 5 5 6 8 10 11 12 13 14 15 16 17 18 20 20 22 20 19 20 22 22 18 12 11 12 12 12 12 1 2 4 11 12 10 12 9 10 8
5 4 4 5 5 5 6 7 6 9 10 11 12 13 14 14 16 16 21 21 22 21 21 22 21 17 18 12 12 16 13 14 12 7 4 4 5 11 9 12 8 7 8
5 4 5 5 5 5 6 6 7 8 8 9 10 12 14 15 15 16 19 21 19 19 19 20 22 20 21 10 12 12 12 10 12 6 4 3 2 9 5 4 6 4 3
6 5 5 5 5 5 5 6 7 7 7 9 9 11 12 14 14 15 17 19 18 18 18 17 18 17 19 22 10 14 12 11 11 8 3 5 3 4 5 8 5 2 3
6 5 6 5 4 4 5 7 8 8 9 8 11 11 11 12 10 16 16 17 17 18 17 18 17 19 27 22 13 9 9 11 8 8 4 2 4 6 14 8 6 5 2
7 6 5 5 4 4 5 7 8 9 9 9 11 12 13 10 24 26 22 15 16 16 17 18 17 19 24 32 32 27 16 10 11 9 9 10 11 10 8 12 7 7 5
6 5 5 4 3 3 5 7 8 10 10 10 11 12 12 13 24 26 26 11 13 14 15 15 16 14 19 21 26 22 16 15 12 9 9 12 12 13 12 13 9 3 4
6 6 5 4 2 3 5 6 8 8 9 10 10 9 11 11 24 25 27 11 11 13 14 16 16 17 17 22 20 16 11 8 7 4 4 5 8 7 15 7 9 8 5
7 6 5 4 2 3 5 6 6 7 8 7 8 10 11 12 23 25 22 11 11 13 13 14 15 16 28 32 19 16 15 9 6 9 7 7 13 22 15 11 10 9 3
6 5 5 4 2 3 5 6 5 4 9 7 10 8 10 11 19 24 21 9 12 11 12 13 20 20 31 32 18 13 14 11 8 4 2 2 9 12 18 10 12 11 5
4 5 4 3 1 3 4 4 5 5 7 6 7 8 8 8 11 23 23 11 10 11 11 12 12 29 30 31 28 12 16 17 9 5 3 1 2 3 5 1 7 9 6
5 4 3 1 3 4 5 5 5 5 6 6 6 6 6 6 13 18 22 21 21 11 12 11 13 29 30 29 21 26 25 19 6 3 2 2 2 3 1 1 5 5 3
4 3 2 2 3 4 4 5 4 3 4 6 6 7 8 7 5 19 21 22 21 13 10 19 27 28 27 17 21 23 16 10 11 3 2 2 1 4 5 3 7 8 9
4 2 1 2 3 3 3 4 4 3 3 6 7 7 8 7 7 8 8 9 13 13 15 9 18 19 16 15 11 11 9 9 9 9 7 1 1 3 2 2 2 3 4
3 2 3 3 3 3 3 3 5 4 6 7 6 7 8 8 9 19 17 11 11 13 12 9 9 9 10 10 9 10 9 9 10 10 9 5 2 3 1 3 3 2 3
3 2 2 1 2 2 2 5 10 13 15 17 19 14 8 18 22 22 22 22 20 22 6 7 8 8 9 9 9 10 9 10 9 8 8 8 2 2 2 3 3 3 3
4 3 2 2 2 3 2 2 5 9 16 13 14 18 19 18 20 21 21 20 19 14 1 4 7 8 8 8 8 9 10 9 11 8 8 8 8 1 4 4 4 5 4
4 5 3 3 3 3 3 3 2 4 7 9 11 16 18 19 20 20 19 13 9 6 1 2 5 7 7 8 8 7 8 9 8 9 9 9 8 8 1 3 4 4 5
4 4 4 3 3 3 2 3 3 2 5 7 9 12 8 19 19 17 16 0 4 6 6 5 3 4 6 7 7 7 8 8 9 8 8 8 8 7 6 2 3 5 6
5 7 5 3 2 2 3 3 3 2 3 5 6 8 7 5 5 3 3 2 3 4 5 5 5 3 4 6 7 7 7 7 7 7 8 8 8 7 7 8 3 4 5
4 3 5 2 2 4 4 4 4 3 5 6 8 8 19 10 7 6 8 7 6 6 5 5 5 5 3 5 6 5 5 6 7 7 7 8 9 8 8 6 7 4 3
4 4 4 4 3 4 4 4 4 4 5 7 8 8 19 7 6 7 7 7 7 6 5 5 5 4 5 5 6 6 6 6 6 6 7 7 7 8 7 7 7 7 4
5 5 4 3 4 5 4 4 4 5 6 6 7 8 7 7 6 7 7 7 7 6 6 3 4 4 4 5 3 4 6 6 5 6 7 7 6 7 7 7 7 6 5
6 6 5 4 3 3 4 5 5 7 8 7 7 7 8 7 8 8 8 7 7 6 5 5 4 6 5 5 4 4 4 6 5 6 6 5 6 7 7 7 7 8 7
6 5 5 5 4 4 4 5 7 7 6 6 7 7 8 8 8 8 8 7 7 7 8 5 5 6 8 9 7 8 7 11 8 7 5 5 7 8 6 6 7 7 7
6 5 4 4 4 4 5 6 8 8 7 7 7 8 8 8 9 9 8 7 6 7 8 6 7 9 9 7 9 9 9 11 9 9 5 4 5 5 5 6 8 6 7
Wind_Direction
277 289 306 303 311 320 312 311 318 324 330 329 330 330 331 332 335 334 337 337 335 328 329 321 314 310 238 208 204 208 202 223 225 304 171 158 182 188 184 202 190 197 193
253 281 297 303 315 315 310 310 309 315 324 326 326 329 329 330 331 329 335 336 338 332 332 328 317 328 274 242 200 211 214 209 222 165 159 176 160 195 179 181 186 194 190
226 255 291 296 304 305 309 306 314 313 311 322 326 329 326 327 326 324 333 333 333 332 332 334 325 340 331 239 212 211 207 211 213 155 165 150 161 160 167 149 163 150 175
214 231 266 276 289 296 300 310 314 313 311 319 321 321 322 322 320 321 329 331 330 331 332 336 334 342 345 336 257 216 208 204 202 177 153 167 149 156 166 164 167 133 136
212 227 250 266 277 296 306 312 315 319 323 317 322 322 323 324 324 326 330 330 331 326 334 333 342 338 344 350 334 292 218 208 185 172 144 151 159 149 190 158 172 139 83
210 226 237 255 275 293 308 316 317 321 323 325 330 325 325 322 322 328 335 328 331 327 330 334 338 342 341 349 344 341 306 216 202 186 172 184 206 177 168 162 156 151 179
210 220 228 228 255 291 304 311 317 319 319 324 325 322 319 318 323 326 333 329 326 327 325 332 335 343 336 345 337 327 337 303 262 221 197 195 173 189 159 164 161 158 139
218 223 211 194 236 292 299 300 308 312 317 317 314 314 314 313 328 329 330 326 323 325 326 326 330 330 330 346 335 336 329 319 304 289 250 219 182 163 171 167 157 104 77
226 213 187 183 223 265 289 299 296 301 312 305 311 315 312 312 325 333 331 324 327 324 326 328 326 328 332 341 336 335 329 305 318 326 289 192 172 171 160 138 156 150 130
222 193 163 166 211 251 271 290 294 289 298 304 306 307 303 308 323 330 332 332 325 320 327 325 329 330 335 338 337 336 328 323 323 318 297 224 185 182 170 172 161 158 129
158 155 159 156 217 268 284 298 299 289 293 280 298 301 296 298 316 330 331 334 316 327 325 329 325 326 335 333 334 334 331 327 305 288 264 241 138 180 202 140 170 157 150
148 152 145 129 302 299 296 293 287 289 300 309 305 305 302 288 312 328 335 328 330 326 323 319 308 326 328 326 330 337 342 343 302 262 276 140 172 163 185 58 86 78 46
136 155 180 266 281 284 276 270 284 283 298 309 306 305 302 304 286 318 320 321 331 328 314 313 330 325 322 322 334 342 345 349 337 314 320 290 159 93 117 73 66 77 64
166 190 239 260 282 264 270 280 289 284 289 293 293 289 298 305 313 303 296 315 318 318 319 341 331 328 332 335 339 346 344 351 347 351 318 321 143 130 142 117 113 125 89
167 207 251 242 252 261 270 262 280 266 272 284 295 298 309 312 304 318 322 325 320 326 1 344 332 336 340 346 345 348 340 354 357 345 334 298 200 133 133 131 108 112 96
208 216 218 236 265 289 296 301 305 304 306 309 310 311 310 311 315 319 327 326 343 346 4 333 331 337 339 342 343 339 340 345 343 330 325 336 295 122 116 144 110 162 121
212 225 211 248 249 237 265 287 303 314 312 313 315 316 316 310 323 322 326 330 353 353 360 318 326 329 332 335 338 338 332 329 325 333 335 339 331 163 149 169 172 163 135
208 219 210 221 230 228 227 223 229 297 304 310 313 313 312 323 318 320 323 356 336 338 266 290 310 319 325 326 327 329 325 325 333 333 341 341 345 338 163 176 166 174 159
211 223 208 216 220 233 254 255 230 232 273 287 308 311 307 317 317 316 325 93 293 309 314 312 281 303 314 316 315 318 322 323 331 335 339 340 346 340 329 172 165 190 167
231 239 210 213 208 236 239 248 262 235 254 277 289 285 303 306 308 293 290 272 274 271 282 289 290 271 295 306 312 318 326 328 333 338 339 345 339 340 344 339 194 196 183
221 239 243 222 206 222 227 239 232 240 268 276 274 277 291 300 310 303 302 299 293 290 281 272 289 287 280 298 304 307 316 318 327 335 336 343 340 338 340 331 318 205 176
216 221 221 225 225 243 235 225 232 239 252 268 280 282 295 297 282 283 285 281 277 272 263 256 271 272 278 283 299 309 313 311 322 337 328 337 339 333 336 334 337 324 175
219 222 228 225 236 251 254 244 245 248 253 255 268 279 282 276 272 271 273 275 273 273 280 243 259 275 266 268 260 270 292 297 305 312 312 327 331 328 332 329 333 335 322
212 216 226 227 203 226 247 263 258 255 258 264 270 271 274 274 273 273 274 275 276 273 264 270 256 258 263 263 268 263 266 277 279 287 306 322 318 319 316 320 322 323 325
206 211 222 243 221 237 250 258 263 255 250 256 268 270 272 273 274 273 273 272 272 277 282 268 256 262 260 259 261 266 268 282 282 278 284 278 283 291 294 302 309 313 315
238 200 208 221 234 232 231 253 258 253 254 261 264 266 269 272 272 274 273 270 262 268 273 271 262 260 263 256 255 259 257 266 264 255 240 242 260 274 285 300 310 311 314